Weather History for KCMA - November, 2014

Change the Weather History Date:

Saturday, November 22, 2014

  Actual Average Record
Temperature  
Mean Temperature 59 °F 57 °F  
Max Temperature 71 °F 69 °F 87 °F (1954)
Min Temperature 46 °F 45 °F 35 °F (1961)
Degree Days  
Heating Degree Days 6 8  
Month to date heating degree days 59 138  
Since 1 July heating degree days 66 261  
Cooling Degree Days 0 0  
Month to date cooling degree days 31 13  
Year to date cooling degree days 1006 329  
Growing Degree Days 8 (Base 50)    
Moisture  
Dew Point 47 °F    
Average Humidity 59    
Maximum Humidity 78    
Minimum Humidity 39    
Precipitation  
Precipitation 0.00 in 0.04 in 1.50 in (1965)
Month to date precipitation 0.05 1.07  
Year to date precipitation 4.98 12.92  
Since 1 July precipitation 0.79 1.94  
Sea Level Pressure  
Sea Level Pressure 30.07 in    
Wind  
Wind Speed 4 mph (ESE)    
Max Wind Speed 12 mph    
Max Gust Speed 14 mph    
Visibility 10 miles    
Events      
T = Trace of Precipitation, MM = Missing Value Source: NWS Daily Summary

Daily Weather History Graph

Daily Weather History Graph

Search for Another Location

Airport or City:

Trip Planner

Search our weather history database for the weather conditions in past years. The results will help you decide how hot, cold, wet, or windy it might be!

Date:

Astronomy

Nov. 22, 2014 Rise Set
Actual Time 6:35 AM PST 4:48 PM PST
Civil Twilight 6:08 AM PST 5:15 PM PST
Nautical Twilight 5:38 AM PST 5:46 PM PST
Astronomical Twilight 5:08 AM PST 6:16 PM PST
Moon 6:38 AM PST (11/22) 5:22 PM PST (11/22)
Length of Visible Light 11h 06m
Length of Day
10h 12m
New Moon, 0% of the Moon is Illuminated
Nov 22
New Moon
Nov 29
First Quarter
Dec 6
Full
Dec 14
Last Quarter
Dec 21
New

Hourly Weather History & Observations

Time (PST) Temp. Dew Point Humidity Pressure Visibility Wind Dir Wind Speed Gust Speed Precip Events Conditions
12:55 AM 53.1 °F 41.0 °F 64% 30.07 in 10.0 mi WNW 3.5 mph - N/A   Clear
1:55 AM 51.1 °F 42.1 °F 71% 30.09 in 10.0 mi ENE 5.8 mph - N/A   Clear
2:55 AM 50.0 °F 39.9 °F 68% 30.08 in 10.0 mi North 3.5 mph - N/A   Clear
3:55 AM 48.9 °F 39.0 °F 69% 30.08 in 10.0 mi Calm Calm - N/A   Clear
4:55 AM 50.0 °F 39.0 °F 66% 30.08 in 10.0 mi Calm Calm - N/A   Clear
5:55 AM 46.9 °F 39.0 °F 74% 30.10 in 10.0 mi NE 3.5 mph - N/A   Clear
6:55 AM 48.0 °F 39.0 °F 71% 30.11 in 10.0 mi East 6.9 mph - N/A   Clear
7:55 AM 55.0 °F 39.9 °F 57% 30.12 in 10.0 mi Calm Calm - N/A   Clear
8:55 AM 62.1 °F 37.0 °F 39% 30.13 in 10.0 mi East 3.5 mph - N/A   Clear
9:55 AM 66.9 °F 46.0 °F 47% 30.15 in 10.0 mi Calm Calm - N/A   Clear
10:55 AM 68.0 °F 48.0 °F 49% 30.12 in 10.0 mi South 5.8 mph - N/A   Clear
11:55 AM 70.0 °F 50.0 °F 49% 30.09 in 10.0 mi WSW 8.1 mph - N/A   Clear
12:55 PM 70.0 °F 50.0 °F 49% 30.07 in 10.0 mi WSW 8.1 mph - N/A   Clear
1:55 PM 70.0 °F 48.0 °F 46% 30.04 in 10.0 mi SSW 6.9 mph - N/A   Clear
2:55 PM 70.0 °F 46.0 °F 42% 30.03 in 10.0 mi South 6.9 mph - N/A   Clear
3:55 PM 68.0 °F 59.0 °F 73% 30.02 in 10.0 mi South 4.6 mph - N/A   Clear
4:55 PM 66.0 °F 59.0 °F 78% 30.02 in 10.0 mi ESE 3.5 mph - N/A   Clear
5:55 PM 64.9 °F 57.9 °F 78% 30.00 in 10.0 mi ESE 4.6 mph - N/A   Clear
6:55 PM 64.0 °F 55.9 °F 75% 30.01 in 10.0 mi East 5.8 mph - N/A   Clear
7:55 PM 62.1 °F 55.9 °F 80% 30.03 in 10.0 mi East 5.8 mph - N/A   Clear
8:55 PM 60.1 °F 48.9 °F 67% 30.04 in 10.0 mi ENE 8.1 mph - N/A   Clear
9:55 PM 57.9 °F 48.9 °F 72% 30.05 in 10.0 mi Calm Calm - N/A   Clear
10:55 PM 54.0 °F 46.0 °F 75% 30.06 in 10.0 mi NNE 3.5 mph - N/A   Clear
11:55 PM 53.1 °F 46.0 °F 77% 30.06 in 10.0 mi Calm Calm - N/A   Clear